Flag for Canada Weather past 2 weeks in Guelph, Ontario, Canada

Now
41 °F

Passing clouds.


Feels Like: 37 °F
Forecast: 41 / 71 °F
Wind: 6 mph from North

Location: Waterloo Well


UV Index: 0 (Low)

Visibility: 9 mi


Pressure: 30.11 "Hg

Humidity: 76%

Dew point: 34 °F

Location of GuelphLocation

Historic Weather in Guelph

°F

Guelph temperature yesterday

Maximum temperature yesterday: 66 °F (at 4:00 PM)
Minimum temperature yesterday: 34 °F (at 1:00 AM)
Average temperature yesterday: 48 °F

Past Weeks' High & Low Weather Summary

 TemperatureHumidityPressure
High70 °F (Apr 13, 6:00 PM)100% (Apr 7, 9:00 PM)30.54 "Hg (Apr 7, 9:00 PM)
Low18 °F (Apr 16, 4:00 AM)22% (Apr 20, 6:00 PM)29.34 "Hg (Apr 8, 4:01 AM)
Average42 °F70%30.02 "Hg
* Reported Apr 6 1:00 AM — Apr 21 1:00 AM, Guelph, Weather by CustomWeather, © 2014

Note: Actual official high and low records may vary slightly from our data, if they occured in-between our weather recording intervals... More about our weather records

Advertising

Historic Weather Conditions — Data for Previous 24 hours

 ConditionsComfort  
Time TempWeatherWind HumidityBarometerVisibility
1:00 AM
Apr 21
43 °FPassing clouds.2 mph71%30.12 "Hg9 mi
12:00 AM45 °FOvercast.2 mph71%30.14 "Hg9 mi
11:00 PM
Apr 20
46 °FOvercast.6 mph62%30.15 "Hg9 mi
10:00 PM48 °FPassing clouds.5 mph62%30.18 "Hg9 mi
9:00 PM52 °FPartly sunny.3 mph62%30.18 "Hg9 mi
8:00 PM59 °FSunny.6 mph29%30.18 "Hg9 mi
7:00 PM64 °FSunny.12 mph24%30.19 "Hg9 mi
6:00 PM66 °FSunny.12 mph22%30.20 "Hg9 mi
5:00 PM66 °FSunny.12 mph32%30.22 "Hg9 mi
4:00 PM66 °FSunny.12 mph30%30.23 "Hg9 mi
3:00 PM64 °FSunny.13 mph32%30.26 "Hg9 mi
2:00 PM64 °FSunny.15 mph30%30.28 "Hg9 mi
1:00 PM59 °FSunny.7 mph36%30.31 "Hg9 mi
12:00 PM55 °FSunny.8 mph38%30.33 "Hg9 mi
11:00 AM52 °FSunny.9 mph41%30.35 "Hg9 mi
10:00 AM48 °FSunny.7 mph46%30.37 "Hg9 mi
9:00 AM41 °FSunny.7 mph61%30.39 "Hg9 mi
8:00 AM36 °FSunny.5 mph75%30.39 "Hg9 mi
7:00 AM34 °FClear.2 mph75%30.39 "Hg9 mi
6:00 AM34 °FClear.6 mph75%30.38 "Hg9 mi
5:00 AM36 °FClear.5 mph65%30.39 "Hg9 mi
4:00 AM34 °FClear.10 mph75%30.38 "Hg9 mi
3:00 AM34 °FClear.9 mph81%30.39 "Hg9 mi
2:00 AM34 °FClear.9 mph81%30.41 "Hg9 mi
Weather by CustomWeather, © 2014

See weather overview